Time,TemperatureF,DewpointF,PressureIn,WindDirection,WindDirectionDegrees,WindSpeedMPH,WindSpeedGustMPH,Humidity,HourlyPrecipIn,Conditions,Clouds,dailyrainin,SoftwareType,DateUTC
2013-10-20 00:07:00,51.8,42.0,30.08,NW,315,0.0,0.0,69,0.00,,,0.00,open2300 v1.10,2013-10-19 11:07:00,
2013-10-20 00:22:00,51.6,41.8,30.08,NW,315,0.0,0.0,69,0.00,,,0.00,open2300 v1.10,2013-10-19 11:22:00,
2013-10-20 00:37:00,51.3,41.5,30.08,NW,315,0.0,0.0,69,0.00,,,0.00,open2300 v1.10,2013-10-19 11:37:00,
2013-10-20 00:53:00,50.9,41.1,30.08,NW,315,0.0,0.0,69,0.00,,,0.00,open2300 v1.10,2013-10-19 11:53:00,
2013-10-20 01:07:00,50.9,41.1,30.08,NW,315,0.0,0.0,69,0.00,,,0.00,open2300 v1.10,2013-10-19 12:07:00,
2013-10-20 01:22:00,50.7,41.0,30.08,NW,315,0.0,0.0,69,0.00,,,0.00,open2300 v1.10,2013-10-19 12:22:00,
2013-10-20 01:37:00,50.4,40.6,30.07,NW,315,0.0,0.0,69,0.00,,,0.00,open2300 v1.10,2013-10-19 12:37:00,
2013-10-20 01:53:00,50.2,40.4,30.07,NW,315,0.0,0.0,69,0.00,,,0.00,open2300 v1.10,2013-10-19 12:53:00,
2013-10-20 02:07:00,50.0,40.6,30.07,NW,315,0.0,0.0,70,0.00,,,0.00,open2300 v1.10,2013-10-19 13:07:00,
2013-10-20 02:21:00,49.8,40.8,30.07,NW,315,0.0,0.0,71,0.00,,,0.00,open2300 v1.10,2013-10-19 13:21:00,
2013-10-20 02:37:00,49.8,41.1,30.07,NW,315,0.0,0.0,72,0.00,,,0.00,open2300 v1.10,2013-10-19 13:37:00,
2013-10-20 02:52:00,49.5,41.1,30.07,NW,315,0.0,0.0,73,0.00,,,0.00,open2300 v1.10,2013-10-19 13:52:00,
2013-10-20 03:07:00,49.3,41.3,30.07,NW,315,0.0,0.0,74,0.00,,,0.00,open2300 v1.10,2013-10-19 14:07:00,
2013-10-20 03:22:00,49.1,41.1,30.07,NW,315,0.0,0.0,74,0.00,,,0.00,open2300 v1.10,2013-10-19 14:22:00,
2013-10-20 03:37:00,48.9,41.3,30.07,NW,315,0.0,0.0,75,0.00,,,0.00,open2300 v1.10,2013-10-19 14:37:00,
2013-10-20 03:52:00,48.6,40.9,30.07,NW,315,0.0,0.0,75,0.00,,,0.00,open2300 v1.10,2013-10-19 14:52:00,
2013-10-20 04:07:00,48.4,40.7,30.07,NW,315,0.0,0.0,75,0.00,,,0.00,open2300 v1.10,2013-10-19 15:07:00,
2013-10-20 04:21:00,48.4,40.7,30.06,NW,315,0.0,0.0,75,0.00,,,0.00,open2300 v1.10,2013-10-19 15:21:00,
2013-10-20 04:37:00,48.2,40.5,30.06,NW,315,0.0,0.0,75,0.00,,,0.00,open2300 v1.10,2013-10-19 15:37:00,
2013-10-20 04:52:00,48.4,40.7,30.06,NW,315,0.0,0.0,75,0.00,,,0.00,open2300 v1.10,2013-10-19 15:52:00,
2013-10-20 05:07:00,48.4,40.7,30.05,NW,315,0.0,0.0,75,0.00,,,0.00,open2300 v1.10,2013-10-19 16:07:00,
2013-10-20 05:22:00,48.4,40.7,30.06,NW,315,0.0,0.0,75,0.00,,,0.00,open2300 v1.10,2013-10-19 16:22:00,
2013-10-20 05:37:00,48.2,40.5,30.06,NW,315,0.0,0.0,75,0.00,,,0.00,open2300 v1.10,2013-10-19 16:37:00,
2013-10-20 05:52:00,48.2,40.5,30.06,NW,315,0.0,0.0,75,0.00,,,0.00,open2300 v1.10,2013-10-19 16:52:00,
2013-10-20 06:07:00,48.6,40.9,30.06,NW,315,0.0,0.0,75,0.00,,,0.00,open2300 v1.10,2013-10-19 17:07:00,
2013-10-20 06:22:00,48.7,41.1,30.07,NW,315,0.0,0.0,75,0.00,,,0.00,open2300 v1.10,2013-10-19 17:22:00,
2013-10-20 06:37:00,48.6,40.9,30.07,NW,315,0.0,0.0,75,0.00,,,0.00,open2300 v1.10,2013-10-19 17:37:00,
2013-10-20 06:52:00,48.6,40.9,30.08,NW,315,0.0,0.0,75,0.00,,,0.00,open2300 v1.10,2013-10-19 17:52:00,
2013-10-20 07:07:00,48.7,41.1,30.08,NW,315,0.0,0.0,75,0.00,,,0.00,open2300 v1.10,2013-10-19 18:07:00,
2013-10-20 07:22:00,49.6,42.0,30.08,NW,315,0.0,0.0,75,0.00,,,0.00,open2300 v1.10,2013-10-19 18:22:00,
2013-10-20 07:37:00,50.7,43.1,30.09,NW,315,0.0,0.0,75,0.00,,,0.00,open2300 v1.10,2013-10-19 18:37:00,
2013-10-20 07:52:00,52.3,44.3,30.09,NW,315,0.0,0.0,74,0.00,,,0.00,open2300 v1.10,2013-10-19 18:52:00,
2013-10-20 08:07:00,54.3,46.2,30.09,NW,315,0.0,0.0,74,0.00,,,0.00,open2300 v1.10,2013-10-19 19:07:00,
2013-10-20 08:21:00,56.1,47.5,30.10,NW,315,0.0,0.0,73,0.00,,,0.00,open2300 v1.10,2013-10-19 19:21:00,
2013-10-20 08:37:00,58.1,48.4,30.10,NW,315,0.0,0.0,70,0.00,,,0.00,open2300 v1.10,2013-10-19 19:37:00,
2013-10-20 08:52:00,60.6,49.7,30.10,NW,315,0.0,0.0,67,0.00,,,0.00,open2300 v1.10,2013-10-19 19:52:00,
2013-10-20 09:07:00,63.3,51.7,30.10,NW,315,0.0,0.0,66,0.00,,,0.00,open2300 v1.10,2013-10-19 20:07:00,
2013-10-20 09:22:00,65.5,51.3,30.10,NW,315,0.0,0.0,60,0.00,,,0.00,open2300 v1.10,2013-10-19 20:22:00,
2013-10-20 09:36:00,67.3,51.5,30.10,NW,315,0.0,0.0,57,0.00,,,0.00,open2300 v1.10,2013-10-19 20:36:00,
2013-10-20 09:52:00,68.5,51.7,30.10,NW,315,0.0,0.0,55,0.00,,,0.00,open2300 v1.10,2013-10-19 20:52:00,
2013-10-20 10:07:00,71.4,51.8,30.10,NW,315,0.0,0.0,50,0.00,,,0.00,open2300 v1.10,2013-10-19 21:07:00,
2013-10-20 10:22:00,73.4,51.8,30.10,NW,315,0.0,0.0,47,0.00,,,0.00,open2300 v1.10,2013-10-19 21:22:00,
2013-10-20 10:37:00,74.5,52.2,30.11,NW,315,0.0,0.0,46,0.00,,,0.00,open2300 v1.10,2013-10-19 21:37:00,
2013-10-20 10:52:00,76.8,52.6,30.11,NW,315,0.0,0.0,43,0.00,,,0.00,open2300 v1.10,2013-10-19 21:52:00,
2013-10-20 11:06:00,78.3,53.3,30.10,NW,315,0.0,0.0,42,0.00,,,0.00,open2300 v1.10,2013-10-19 22:06:00,
2013-10-20 11:22:00,79.9,54.1,30.11,NW,315,0.0,0.0,41,0.00,,,0.00,open2300 v1.10,2013-10-19 22:22:00,
2013-10-20 11:37:00,81.1,53.8,30.10,NW,315,0.0,0.0,39,0.00,,,0.00,open2300 v1.10,2013-10-19 22:37:00,
2013-10-20 11:52:00,82.9,53.1,30.10,NW,315,0.0,0.0,36,0.00,,,0.00,open2300 v1.10,2013-10-19 22:52:00,
2013-10-20 12:07:00,81.1,51.5,30.09,NW,315,0.0,0.0,36,0.00,,,0.00,open2300 v1.10,2013-10-19 23:07:00,
2013-10-20 12:22:00,77.5,50.6,30.09,NW,315,0.0,0.0,39,0.00,,,0.00,open2300 v1.10,2013-10-19 23:22:00,
2013-10-20 12:36:00,75.9,50.5,30.09,NW,315,0.0,0.0,41,0.00,,,0.00,open2300 v1.10,2013-10-19 23:36:00,
2013-10-20 12:51:00,75.9,49.9,30.09,NW,315,0.0,0.0,40,0.00,,,0.00,open2300 v1.10,2013-10-19 23:51:00,
2013-10-20 13:07:00,78.6,52.4,30.08,NW,315,0.0,0.0,40,0.00,,,0.00,open2300 v1.10,2013-10-20 00:07:00,
2013-10-20 13:22:00,81.1,53.1,30.08,NW,315,0.0,0.0,38,0.00,,,0.00,open2300 v1.10,2013-10-20 00:22:00,
2013-10-20 13:37:00,81.1,53.1,30.08,NW,315,0.0,0.0,38,0.00,,,0.00,open2300 v1.10,2013-10-20 00:37:00,
2013-10-20 13:52:00,81.0,51.3,30.08,NW,315,0.0,0.0,36,0.00,,,0.00,open2300 v1.10,2013-10-20 00:52:00,
2013-10-20 14:07:00,79.9,51.2,30.08,NW,315,0.0,0.0,37,0.00,,,0.00,open2300 v1.10,2013-10-20 01:07:00,
2013-10-20 14:22:00,80.2,50.7,30.07,NW,315,0.0,0.0,36,0.00,,,0.00,open2300 v1.10,2013-10-20 01:22:00,
2013-10-20 14:37:00,81.7,51.2,30.07,NW,315,0.0,0.0,35,0.00,,,0.00,open2300 v1.10,2013-10-20 01:37:00,
2013-10-20 14:51:00,81.5,50.2,30.06,NW,315,0.0,0.0,34,0.00,,,0.00,open2300 v1.10,2013-10-20 01:51:00,
2013-10-20 15:07:00,80.4,49.3,30.05,NW,315,0.0,0.0,34,0.00,,,0.00,open2300 v1.10,2013-10-20 02:07:00,
2013-10-20 15:22:00,81.5,48.7,30.05,NW,315,0.0,0.0,32,0.00,,,0.00,open2300 v1.10,2013-10-20 02:22:00,
2013-10-20 15:37:00,79.5,49.3,30.04,NW,315,0.0,0.0,35,0.00,,,0.00,open2300 v1.10,2013-10-20 02:37:00,
2013-10-20 15:52:00,78.4,49.9,30.04,NW,315,0.0,0.0,37,0.00,,,0.00,open2300 v1.10,2013-10-20 02:52:00,
2013-10-20 16:07:00,77.0,49.4,30.03,NW,315,0.0,0.0,38,0.00,,,0.00,open2300 v1.10,2013-10-20 03:07:00,
2013-10-20 16:21:00,77.7,48.5,30.03,NW,315,0.0,0.0,36,0.00,,,0.00,open2300 v1.10,2013-10-20 03:21:00,
2013-10-20 16:37:00,78.6,47.7,30.03,NW,315,0.0,0.0,34,0.00,,,0.00,open2300 v1.10,2013-10-20 03:37:00,
2013-10-20 16:51:00,78.4,46.8,30.01,NW,315,0.0,0.0,33,0.00,,,0.00,open2300 v1.10,2013-10-20 03:51:00,
2013-10-20 17:07:00,77.9,47.1,30.01,NW,315,0.0,0.0,34,0.00,,,0.00,open2300 v1.10,2013-10-20 04:07:00,
2013-10-20 17:22:00,74.1,44.5,30.01,NW,315,0.0,0.0,35,0.00,,,0.00,open2300 v1.10,2013-10-20 04:22:00,
2013-10-20 17:36:00,70.5,42.8,30.00,NW,315,0.0,0.0,37,0.00,,,0.00,open2300 v1.10,2013-10-20 04:36:00,
2013-10-20 17:52:00,69.4,41.9,30.00,NW,315,0.0,0.0,37,0.00,,,0.00,open2300 v1.10,2013-10-20 04:52:00,
2013-10-20 18:07:00,67.8,42.6,30.00,NW,315,0.0,0.0,40,0.00,,,0.00,open2300 v1.10,2013-10-20 05:07:00,
2013-10-20 18:22:00,66.6,42.7,30.00,NW,315,0.0,0.0,42,0.00,,,0.00,open2300 v1.10,2013-10-20 05:22:00,
2013-10-20 18:37:00,65.8,42.0,29.99,NW,315,0.0,0.0,42,0.00,,,0.00,open2300 v1.10,2013-10-20 05:37:00,
2013-10-20 18:52:00,65.1,39.5,29.99,NW,315,0.0,0.0,39,0.00,,,0.00,open2300 v1.10,2013-10-20 05:52:00,
2013-10-20 19:07:00,64.6,40.3,29.98,NW,315,0.0,0.0,41,0.00,,,0.00,open2300 v1.10,2013-10-20 06:07:00,
2013-10-20 19:22:00,63.3,40.3,29.98,NW,315,0.0,0.0,43,0.00,,,0.00,open2300 v1.10,2013-10-20 06:22:00,
2013-10-20 19:37:00,63.0,38.3,29.98,NW,315,0.0,0.0,40,0.00,,,0.00,open2300 v1.10,2013-10-20 06:37:00,
2013-10-20 19:52:00,63.1,37.7,29.98,NW,315,0.0,0.0,39,0.00,,,0.00,open2300 v1.10,2013-10-20 06:52:00,
2013-10-20 20:07:00,63.0,37.5,29.98,NW,315,0.0,0.0,39,0.00,,,0.00,open2300 v1.10,2013-10-20 07:07:00,
2013-10-20 20:22:00,61.3,39.7,29.98,NW,315,0.0,0.0,45,0.00,,,0.00,open2300 v1.10,2013-10-20 07:22:00,
2013-10-20 20:37:00,59.9,40.7,29.98,NW,315,0.0,0.0,49,0.00,,,0.00,open2300 v1.10,2013-10-20 07:37:00,
2013-10-20 20:52:00,59.2,40.6,29.98,NW,315,0.0,0.0,50,0.00,,,0.00,open2300 v1.10,2013-10-20 07:52:00,
2013-10-20 21:06:00,58.8,41.2,29.98,NW,315,0.0,0.0,52,0.00,,,0.00,open2300 v1.10,2013-10-20 08:06:00,
2013-10-20 21:22:00,58.1,42.0,29.98,NW,315,0.0,0.0,55,0.00,,,0.00,open2300 v1.10,2013-10-20 08:22:00,
2013-10-20 21:37:00,57.6,42.4,29.98,NW,315,0.0,0.0,57,0.00,,,0.00,open2300 v1.10,2013-10-20 08:37:00,
2013-10-20 21:53:00,57.0,42.9,29.97,NW,315,0.0,0.0,59,0.00,,,0.00,open2300 v1.10,2013-10-20 08:53:00,
2013-10-20 22:07:00,56.5,43.2,29.97,NW,315,0.0,0.0,61,0.00,,,0.00,open2300 v1.10,2013-10-20 09:07:00,
2013-10-20 22:22:00,56.5,42.8,29.96,NW,315,0.0,0.0,60,0.00,,,0.00,open2300 v1.10,2013-10-20 09:22:00,
2013-10-20 22:37:00,56.8,41.3,29.97,NW,315,0.0,0.0,56,0.00,,,0.00,open2300 v1.10,2013-10-20 09:37:00,
2013-10-20 22:53:00,56.8,40.8,29.96,NW,315,0.0,0.0,55,0.00,,,0.00,open2300 v1.10,2013-10-20 09:53:00,
2013-10-20 23:07:00,55.9,40.4,29.96,NW,315,0.0,0.0,56,0.00,,,0.00,open2300 v1.10,2013-10-20 10:07:00,
2013-10-20 23:22:00,55.2,40.2,29.95,NW,315,0.0,0.0,57,0.00,,,0.00,open2300 v1.10,2013-10-20 10:22:00,
2013-10-20 23:37:00,54.5,40.0,29.95,NW,315,0.0,0.0,58,0.00,,,0.00,open2300 v1.10,2013-10-20 10:37:00,
2013-10-20 23:53:00,54.1,40.1,29.94,NW,315,0.0,0.0,59,0.00,,,0.00,open2300 v1.10,2013-10-20 10:53:00,